NOAA 16 DEB, 41284

Orbit data source: Space-Track

NOAA 16 DEB, 41284 is space debris in SSO originally from a launch on Thu, 21 Sep 2000 UTC launched from the Air Force Western Test Range (AFWTR). Debris objects in space refer to the collection of defunct objects orbiting the Earth. Examples of debris include non-operational satellites, rocket bodies, and fragments generated from explosions, collisions, or faulty payload assembly.

Loading next visibility...
Identifier
41284, 2000-055GL
Orbit
SSO
Country
Flag of USUS
Related business
Manufacturer
Unknown
Mission
Spacecraft
Bus & Motor
Unknown
Mass
Unknown
Launch date (UTC)
2000-09-21 (25 years ago)
Launch vehicle
Unknown
Launch site
Air Force Western Test Range (AFWTR)
Object type
Payload
Rocket body
Debris
Shape & HBR
Unknown shape, 0.1 m
Radar Cross Section
Small (<0.1 m²)

Expand to show TLE details & history
Last TLE update: 12 hours ago

TLE from 12 hours ago
0 NOAA 16 DEB
1 41284U 00055GL  25303.13084304  .00005322  00000-0  31605-2 0  9994
2 41284  98.8543 269.2610 0080705  26.7295 333.7999 14.06271342501846
Epoch: 2025-10-30T03:08Z
TLE epoch observation values (Epoch: 2025-10-30T03:08:24.838Z)
Latitude
-0.00002°
Longitude
-176.53653°
Altitude
822.632 km
Speed
7.469 km/s
True Right ascension
17h 57m 02s
True Declination
0° 00' 00"
Sunlit
Object was in daylight at epoch
Visualization orbit readout
Latitude
Unknown
Longitude
Unknown
Altitude
Unknown
Speed
Unknown
Apparent Right ascension
Unknown
Apparent Declination
Unknown
Sunlit
N/A
Visualization observer readout
Local Sidereal Time
10:22:05
Azimuth
Unknown
Elevation
Unknown
Doppler factor
Unknown
Orbital elements
Apogee altitude
927.834 km
Perigee altitude
810.852 km
Semi-major axis
7,247.48 km
Eccentricity
0.00807
Inclination
98.8543°
RAAN
269.261°
Arg. of periapsis
26.7295°
True anomaly
333.38786°
Mean anomaly
333.7999°
Eccentric anomaly
333.59426°
Mean motion
3.51773 °/min
Orbital period
102.34 mins
BSTAR
0.0031605
Loading maneuver chart data...
Computing Atmospheric mass density...
Loading historical data...
Loading historical data...
Loading historical data...
Loading historical data...
Loading historical data...
Loading historical data...
Loading historical data...

Documentation

Showing up to 5 results
|